When you browse on this site, cookies collect data to enhance your experience and personalize the content and advertising you see.
Visit our Privacy Policy to learn more. By continuing to use the site, you agree to this use of cookies and data.
  • In Austria
  • List of Countries
  • For 7 days
  • Water Temperature
  • Weather Map
  • News
  • Weather Widgets
  • user-avatar
    Login

    Hourly Weather Hlybochok

    Today, 23 September, Monday

    Time Temperature Precipitation Wind Pressure Humidity
    00:00 +11°C° 0 mm 3 mps 746 mmHg 81%
    01:00 +11°C° 0 mm 3 mps 746 mmHg 82%
    02:00 +11°C° 0 mm 3 mps 746 mmHg 83%
    03:00 +10°C° 0 mm 3 mps 746 mmHg 86%
    04:00 +10°C° 0 mm 2 mps 746 mmHg 89%
    05:00 +9°C° 0 mm 2 mps 746 mmHg 92%
    06:00 +10°C° 0 mm 3 mps 746 mmHg 89%
    07:00 +10°C° 0 mm 3 mps 747 mmHg 85%
    08:00 +10°C° 0 mm 5 mps 748 mmHg 80%
    09:00 +11°C° 0 mm 4 mps 748 mmHg 75%
    10:00 +12°C° 0 mm 4 mps 748 mmHg 70%
    11:00 +13°C° 0 mm 4 mps 748 mmHg 64%
    12:00 +13°C° 0 mm 4 mps 748 mmHg 62%
    13:00 +13°C° 0 mm 4 mps 748 mmHg 60%
    14:00 +13°C° 0 mm 4 mps 748 mmHg 58%
    15:00 +12°C° 0 mm 4 mps 748 mmHg 57%
    16:00 +12°C° 0 mm 4 mps 748 mmHg 56%
    17:00 +11°C° 0 mm 4 mps 748 mmHg 54%
    18:00 +11°C° 0 mm 4 mps 748 mmHg 55%
    19:00 +10°C° 0 mm 3 mps 748 mmHg 55%
    20:00 +10°C° 0 mm 3 mps 749 mmHg 55%
    21:00 +9°C° 0 mm 3 mps 749 mmHg 56%
    22:00 +9°C° 0 mm 3 mps 749 mmHg 57%
    23:00 +8°C° 0 mm 3 mps 749 mmHg 57%

    Tomorrow, 24 September, Tuesday

    Time Temperature Precipitation Wind Pressure Humidity
    00:00 +8°C° 0 mm 3 mps 749 mmHg 55%
    01:00 +8°C° 0 mm 3 mps 749 mmHg 53%
    02:00 +7°C° 0 mm 3 mps 749 mmHg 51%
    03:00 +7°C° 0 mm 3 mps 749 mmHg 53%
    04:00 +5°C° 0 mm 3 mps 749 mmHg 54%
    05:00 +5°C° 0 mm 3 mps 749 mmHg 56%
    06:00 +6°C° 0 mm 4 mps 749 mmHg 53%
    07:00 +7°C° 0 mm 4 mps 749 mmHg 50%
    08:00 +8°C° 0 mm 4 mps 749 mmHg 47%
    09:00 +11°C° 0 mm 4 mps 749 mmHg 42%
    10:00 +13°C° 0 mm 4 mps 749 mmHg 37%
    11:00 +14°C° 0 mm 4 mps 749 mmHg 31%
    12:00 +16°C° 0 mm 3 mps 749 mmHg 30%
    13:00 +17°C° 0 mm 3 mps 749 mmHg 30%
    14:00 +17°C° 0 mm 2 mps 748 mmHg 29%
    15:00 +17°C° 0 mm 3 mps 748 mmHg 30%
    16:00 +16°C° 0 mm 3 mps 748 mmHg 31%
    17:00 +16°C° 0 mm 3 mps 747 mmHg 33%
    18:00 +13°C° 0 mm 3 mps 747 mmHg 34%
    19:00 +11°C° 0 mm 4 mps 748 mmHg 35%
    20:00 +8°C° 0 mm 4 mps 748 mmHg 36%
    21:00 +8°C° 0 mm 4 mps 748 mmHg 35%
    22:00 +9°C° 0 mm 3 mps 748 mmHg 35%
    23:00 +8°C° 0 mm 3 mps 748 mmHg 35%

    Day after tomorrow, 25 September, Wednesday

    Time Temperature Precipitation Wind Pressure Humidity
    00:00 +8°C° 0 mm 3 mps 748 mmHg 36%
    01:00 +8°C° 0 mm 3 mps 748 mmHg 37%
    02:00 +8°C° 0 mm 3 mps 748 mmHg 39%
    03:00 +9°C° 0 mm 3 mps 748 mmHg 38%
    04:00 +9°C° 0 mm 3 mps 748 mmHg 37%
    05:00 +9°C° 0 mm 3 mps 748 mmHg 35%
    06:00 +10°C° 0 mm 3 mps 748 mmHg 35%
    07:00 +10°C° 0 mm 3 mps 748 mmHg 35%
    08:00 +11°C° 0 mm 3 mps 748 mmHg 35%
    09:00 +12°C° 0 mm 3 mps 748 mmHg 36%
    10:00 +12°C° 0 mm 3 mps 748 mmHg 37%
    11:00 +13°C° 0 mm 3 mps 748 mmHg 37%
    12:00 +16°C° 0 mm 3 mps 748 mmHg 37%
    13:00 +18°C° 0 mm 3 mps 747 mmHg 37%
    14:00 +19°C° 0 mm 3 mps 747 mmHg 37%
    15:00 +19°C° 0 mm 3 mps 747 mmHg 40%
    16:00 +18°C° 0 mm 3 mps 746 mmHg 42%
    17:00 +18°C° 0 mm 3 mps 746 mmHg 45%
    18:00 +17°C° 0 mm 3 mps 746 mmHg 45%
    19:00 +15°C° 0 mm 4 mps 746 mmHg 45%
    20:00 +15°C° 0 mm 5 mps 746 mmHg 45%
    21:00 +14°C° 0 mm 5 mps 746 mmHg 45%
    22:00 +14°C° 0 mm 4 mps 746 mmHg 44%
    23:00 +13°C° 0 mm 4 mps 746 mmHg 43%

    26 September, Thursday

    Time Temperature Precipitation Wind Pressure Humidity
    00:00 +13°C° 0 mm 4 mps 746 mmHg 48%
    01:00 +13°C° 0 mm 4 mps 746 mmHg 53%
    02:00 +13°C° 0 mm 4 mps 746 mmHg 58%
    03:00 +13°C° 0 mm 4 mps 745 mmHg 57%
    04:00 +13°C° 0 mm 4 mps 745 mmHg 57%
    05:00 +13°C° 0 mm 3 mps 745 mmHg 57%
    06:00 +13°C° 0.1 mm 4 mps 745 mmHg 57%
    07:00 +13°C° 0.1 mm 4 mps 745 mmHg 57%
    08:00 +13°C° 0.1 mm 4 mps 745 mmHg 57%
    09:00 +12°C° 0.4 mm 4 mps 746 mmHg 60%
    10:00 +12°C° 0.4 mm 4 mps 746 mmHg 63%
    11:00 +12°C° 0.4 mm 4 mps 746 mmHg 66%
    12:00 +11°C° 0.4 mm 4 mps 746 mmHg 68%
    13:00 +11°C° 0.4 mm 4 mps 746 mmHg 70%
    14:00 +11°C° 0.4 mm 4 mps 746 mmHg 72%
    15:00 +10°C° 0.3 mm 4 mps 746 mmHg 75%
    16:00 +10°C° 0.3 mm 4 mps 746 mmHg 78%
    17:00 +9°C° 0.3 mm 5 mps 746 mmHg 81%
    18:00 +9°C° 0.2 mm 5 mps 746 mmHg 81%
    19:00 +9°C° 0.2 mm 5 mps 746 mmHg 80%
    20:00 +9°C° 0.2 mm 5 mps 746 mmHg 80%
    21:00 +10°C° 0.1 mm 4 mps 746 mmHg 80%
    22:00 +10°C° 0.1 mm 4 mps 746 mmHg 79%
    23:00 +10°C° 0.1 mm 4 mps 746 mmHg 79%

    27 September, Friday

    Time Temperature Precipitation Wind Pressure Humidity
    00:00 +10°C° 0 mm 3 mps 746 mmHg 79%
    01:00 +10°C° 0 mm 3 mps 746 mmHg 79%
    02:00 +10°C° 0 mm 3 mps 746 mmHg 79%
    03:00 +10°C° 0 mm 2 mps 746 mmHg 79%
    04:00 +10°C° 0 mm 2 mps 746 mmHg 80%
    05:00 +9°C° 0 mm 2 mps 746 mmHg 81%
    06:00 +10°C° 0 mm 2 mps 746 mmHg 76%
    07:00 +12°C° 0 mm 2 mps 746 mmHg 72%
    08:00 +13°C° 0 mm 2 mps 746 mmHg 67%
    09:00 +14°C° 0 mm 2 mps 747 mmHg 63%
    10:00 +16°C° 0 mm 1 mps 747 mmHg 59%
    11:00 +18°C° 0 mm 1 mps 747 mmHg 55%
    12:00 +18°C° 0 mm 1 mps 747 mmHg 54%
    13:00 +19°C° 0 mm 1 mps 747 mmHg 53%
    14:00 +19°C° 0 mm 1 mps 747 mmHg 53%
    15:00 +18°C° 0 mm 2 mps 747 mmHg 55%
    16:00 +17°C° 0 mm 2 mps 747 mmHg 57%
    17:00 +16°C° 0 mm 2 mps 747 mmHg 59%
    18:00 +15°C° 0 mm 2 mps 747 mmHg 60%
    19:00 +14°C° 0 mm 2 mps 747 mmHg 60%
    20:00 +13°C° 0 mm 1 mps 747 mmHg 61%
    21:00 +14°C° 0 mm 1 mps 748 mmHg 59%
    22:00 +14°C° 0 mm 1 mps 748 mmHg 57%
    23:00 +14°C° 0 mm 1 mps 748 mmHg 55%

    28 September, Saturday

    Time Temperature Precipitation Wind Pressure Humidity
    00:00 +14°C° 0 mm 1 mps 749 mmHg 55%
    01:00 +13°C° 0 mm 1 mps 749 mmHg 56%
    02:00 +13°C° 0 mm 1 mps 749 mmHg 56%
    03:00 +13°C° 0 mm 1 mps 749 mmHg 57%
    04:00 +12°C° 0 mm 1 mps 749 mmHg 57%
    05:00 +12°C° 0 mm 1 mps 749 mmHg 58%
    06:00 +13°C° 0 mm 1 mps 749 mmHg 55%
    07:00 +14°C° 0 mm 1 mps 749 mmHg 53%
    08:00 +14°C° 0 mm 1 mps 750 mmHg 50%
    09:00 +16°C° 0 mm 1 mps 750 mmHg 47%
    10:00 +18°C° 0 mm 1 mps 750 mmHg 43%
    11:00 +18°C° 0 mm 0 mps 750 mmHg 40%
    12:00 +21°C° 0 mm 1 mps 750 mmHg 38%
    13:00 +21°C° 0 mm 1 mps 750 mmHg 37%
    14:00 +22°C° 0 mm 1 mps 749 mmHg 35%
    15:00 +21°C° 0 mm 1 mps 749 mmHg 38%
    16:00 +21°C° 0 mm 1 mps 749 mmHg 41%
    17:00 +20°C° 0 mm 1 mps 749 mmHg 44%
    18:00 +19°C° 0 mm 1 mps 749 mmHg 48%
    19:00 +18°C° 0 mm 1 mps 749 mmHg 52%
    20:00 +16°C° 0 mm 1 mps 749 mmHg 56%
    21:00 +15°C° 0 mm 1 mps 749 mmHg 58%
    22:00 +15°C° 0 mm 1 mps 749 mmHg 59%
    23:00 +15°C° 0 mm 1 mps 749 mmHg 60%
    Show more